YAOGAN 4

Satellite information

Favourite Embed

Satellite Type and Status

PAYLOADIN ORBIT

Key statistics

Satellite YAOGAN 4 at a glance.

Uptime

6116

Days in orbit

Revolutions

≈ 14.8

Per day

Orbit

SSO

Sun Synchronous Orbit

Inclination

97.9

Latest

Satellite identification and parameters

Extended collection of information and parameters for YAOGAN 4.

Object identification

Identified? True

Debris? False

Object name: YAOGAN 4

International designator: 2008-061A

Object number (NORAD): 33446

Object ID (CCSDS): 33446

Country: PEOPLES REPUBLIC OF CHINA (PRC)

Current information (Y/N): Y

RCS size: LARGE

Orbital parameters

Period: 97.151 minutes

Inclination: 97.9043 deg

SMA: 7000.454 km

Apoapsis: 631.618 km

Periapsis: 613.021 km

RAAN: 173.0385 deg

Eccentricy: 0.00132831

Argument of periapsis: 303.6313 deg

Mean anomaly: 56.3632 deg

Mean motion: 14.8222253 rev/day

Mean motion (dot): 0.00001641 rev/day2

B* drag term: 0.00021220073 1/REarth

Two-line elements (TLE)

Creation date: Aug. 30, 2025, 3:38 a.m.

Reference frame: TEME

Reference center: EARTH

Epoch: Aug. 29, 2025, 6:43 p.m. UTC

TLE line 0: 0 YAOGAN 4

TLE line 1: 1 33446U 08061A 25241.78033627 .00001641 00000-0 21220-3 0 9997

TLE line 2: 2 33446 97.9043 173.0385 0013283 303.6313 56.3632 14.82222530902484

Live tracking on map

Real-time ground track for satellite YAOGAN 4.

In-orbit conjunctions

There are no conjunctions computed for YAOGAN 4, at the moment. Check back to stay up to date, as we update our databases every day.

Go to all conjunctions

Associated space launch

Chinese Earth observation satellite, likely also used for military reconnaissance

YAOGAN 4 was lifted into orbit during the mission ‘Long March 2D | Yaogan Weixing 4’, on board a Long March 2D space rocket.

The launch took place on Dec. 1, 2008, 4:42 a.m. from Launch Area 4 (SLS-2 / 603).

For more information about the launch, click the button.

Launch to space Long March 2D | Yaogan Weixing 4
Long March 2D | Yaogan Weixing 4

Agency: N/A

Status: Launch Successful

Launch date: Dec. 1, 2008, 4:42 a.m. UTC

Rocket: Long March 2D

Launch pad: Launch Area 4 (SLS-2 / 603)

Location: Jiuquan Satellite Launch Center, People's Republic of China

...

Latest news about this satellite

There are no fresh news available about this satellite. Check back as we update our databases every day.


Newsletter sign-up

Weekly statistics, charts and insights to help you stay on top of the space industry.